Tracking 28531 objects as of 27-Feb-2024
HD Live streaming from Space Station
objects crossing your sky now

TITAN 3C TRANSTAGE DEB

Track TITAN 3C TRANSTAGE DEB now!


NORAD ID: 43448
Int'l Code: 1969-013H
Perigee: 35,139.9 km
Apogee: 37,339.1 km
Inclination: 1.3 °
Period: 1,458.9 minutes
Semi major axis: 42610 km
RCS: Unknown
Launch date: February 9, 1969
Source: United States (US)
Launch site: AIR FORCE EASTERN TEST RANGE (AFETR)

Note: This is SATELLITE DEBRIS
Your satellite tracking list
Your tracking list is empty




NASA's NSSDC Master Catalog

Two Line Element Set (TLE):
1 43448U 69013H   24040.40419722 -.00000273  00000-0  00000-0 0  9994
2 43448   1.2775 256.1335 0258060 230.1541 127.1958  0.98702510 21063
Source of the keplerian elements: AFSPC